Wetbulb
46.18 46.11 46.13 45.98 45.77 46.00 46.58 46.46 46.40 46.36 46.29 47.10 46.74 46.92 47.01 46.85 46.91 43.21 39.69 44.39 42.62 38.91 40.05 41.70 43.53 41.28 41.27 40.87 36.21 40.10 40.22 41.19 38.62 34.82 35.26 35.44 33.82 37.14 36.39 38.10 37.00 37.05 35.41 34.53 32.39 33.33 32.97 42.33 40.28 39.12 44.68 43.02 44.05 44.83
45.97 45.92 45.68 45.63 45.72 45.91 46.32 46.51 46.37 46.39 46.87 46.37 46.57 46.83 46.72 46.78 46.56 44.74 39.09 44.56 44.80 38.60 40.42 46.28 46.14 46.22 45.04 45.88 42.44 42.63 40.61 41.11 41.44 38.83 37.12 36.14 35.19 34.80 35.67 34.41 38.70 37.15 39.91 38.44 39.21 40.00 45.04 43.19 45.61 45.20 44.42 44.90 43.65 45.64
44.50 45.74 45.43 45.30 45.67 45.64 45.95 46.14 46.65 46.74 46.44 46.21 46.14 46.24 46.54 46.54 46.60 44.16 40.88 42.50 42.06 38.20 38.47 41.40 40.99 47.12 47.19 46.73 49.70 42.15 43.96 46.91 44.64 47.13 41.47 39.84 35.51 37.28 34.35 34.92 37.40 38.86 40.25 40.25 40.59 42.74 42.12 43.37 44.16 45.09 44.65 44.92 44.67 46.59
43.47 44.04 45.09 45.66 46.03 46.14 46.23 46.23 46.16 45.84 45.95 46.41 46.39 46.52 46.19 46.36 46.35 43.66 41.45 42.69 41.85 40.38 34.92 38.24 48.46 45.60 51.15 47.77 48.21 49.38 48.72 48.93 48.30 46.94 40.54 37.84 37.66 40.73 37.14 40.01 38.65 40.45 40.47 38.68 39.13 40.84 43.14 44.55 44.70 45.55 43.34 44.03 42.91 42.86
43.62 43.43 43.98 44.52 44.29 44.65 44.93 45.18 45.20 45.45 45.79 45.95 46.04 45.97 46.02 46.11 45.90 43.67 42.98 44.07 43.48 40.64 35.74 38.47 43.72 46.73 48.83 49.80 47.68 49.65 48.93 47.71 45.55 42.34 37.13 38.84 38.42 39.28 36.30 37.94 37.03 41.24 40.10 38.49 38.64 44.19 44.85 44.50 45.70 43.28 42.24 42.10 41.63 39.65
44.10 43.88 43.55 43.59 43.80 44.05 44.42 44.69 44.88 45.18 44.94 45.37 45.57 45.76 45.90 45.93 44.80 42.48 35.72 42.49 45.97 44.68 37.64 32.30 43.87 44.92 50.00 51.81 50.58 48.85 49.13 47.53 47.40 43.06 39.32 40.98 44.13 42.05 36.98 36.38 42.59 43.53 44.60 44.38 44.27 43.87 40.93 39.77 40.37 41.10 39.98 39.94 39.34 39.27
44.00 43.92 43.72 43.67 43.57 43.71 43.95 44.09 44.08 44.35 44.47 44.77 44.89 44.91 44.84 44.98 42.67 38.87 36.50 42.14 44.75 43.90 39.61 34.05 35.66 44.39 48.85 50.04 48.87 48.60 49.10 47.19 46.55 44.60 40.48 41.69 42.42 42.42 36.39 37.13 43.39 43.29 43.68 42.39 41.56 42.18 39.99 39.62 39.57 39.07 38.70 37.89 37.87 37.03
43.93 43.98 44.12 43.87 43.62 43.57 43.76 43.75 43.98 44.33 44.52 44.84 44.85 44.99 45.18 45.22 44.33 41.36 45.84 45.62 44.40 42.72 41.47 33.10 33.76 37.81 47.42 41.03 41.90 45.57 43.84 44.21 44.53 42.70 39.91 40.20 39.37 36.32 36.17 40.33 41.00 40.98 40.87 40.25 40.34 39.85 41.36 38.58 37.19 36.39 36.50 36.51 34.93 34.15
44.13 44.43 44.38 44.25 44.11 44.24 44.12 44.30 44.52 44.86 44.63 44.73 45.07 44.61 43.59 42.49 38.91 41.26 47.14 47.06 48.35 42.58 33.69 33.34 33.43 33.75 45.28 41.47 40.58 40.44 41.70 38.15 42.69 37.60 38.54 39.87 36.66 36.20 39.58 39.84 39.92 39.28 40.62 37.89 37.18 37.41 37.58 36.70 35.50 35.22 35.38 35.00 33.61 33.28
44.20 44.02 44.44 44.49 44.36 44.18 44.17 44.31 44.82 45.07 45.23 45.23 43.21 39.87 35.32 40.81 46.50 46.82 44.84 40.58 40.71 40.96 40.81 35.02 40.13 36.66 41.82 37.06 36.88 37.59 36.50 36.32 35.97 38.21 39.19 37.04 37.63 38.43 38.98 39.89 40.51 39.16 37.96 37.84 35.03 33.60 34.18 33.89 34.01 34.13 34.24 34.92 34.51 33.74
44.97 44.62 44.94 45.01 45.28 44.66 44.30 44.68 44.98 45.14 44.70 41.89 38.63 35.77 41.03 46.71 43.60 38.79 34.28 33.40 34.77 32.81 37.43 37.93 37.05 37.57 43.24 36.79 35.95 36.57 33.24 34.11 34.34 37.06 36.88 35.56 35.36 35.56 37.53 39.45 39.85 39.29 39.36 40.10 40.26 37.70 37.64 36.45 34.51 33.05 32.78 33.41 33.47 33.04
45.44 45.32 45.42 45.35 44.94 44.86 44.44 44.50 44.95 44.04 41.76 42.70 42.93 44.00 43.49 40.07 35.41 32.38 31.35 31.74 31.18 32.80 34.65 35.92 37.65 40.81 37.73 43.11 36.45 35.30 33.42 32.68 33.22 36.19 35.00 33.18 33.69 35.20 36.92 37.11 37.58 38.37 38.57 37.21 37.66 35.59 35.38 34.50 33.86 32.67 31.98 31.57 30.40 29.04
44.63 44.88 45.62 45.46 45.58 45.39 45.23 45.23 46.19 46.26 46.45 45.03 38.85 34.78 36.96 32.50 30.15 28.16 27.51 30.61 31.02 32.33 33.75 34.14 33.96 35.74 36.90 38.58 33.91 33.31 31.98 31.91 34.02 32.86 30.91 31.35 34.38 35.42 35.78 35.79 34.90 35.66 35.27 33.87 32.77 32.73 32.60 31.88 31.93 30.58 28.56 28.56 28.66 27.91
44.37 44.39 44.64 45.40 45.60 45.88 45.80 45.17 44.91 44.43 42.92 35.53 32.35 28.30 29.63 28.02 28.52 28.17 29.48 31.00 31.76 31.94 32.31 33.40 33.43 34.31 33.24 33.40 32.53 32.89 31.98 32.80 29.95 27.28 27.34 31.47 33.34 34.03 34.42 34.38 33.15 31.95 31.86 31.09 30.68 30.45 29.59 28.92 28.24 28.89 28.89 29.07 28.27 26.59
44.13 44.38 44.77 45.05 45.95 45.89 44.80 43.82 43.09 41.82 36.68 32.22 31.65 26.80 28.12 31.39 31.59 31.77 31.79 31.97 32.50 33.72 33.22 34.70 34.67 35.65 32.87 32.33 31.73 32.28 30.84 26.74 26.41 25.19 28.52 31.07 32.81 32.48 31.87 31.65 30.90 30.21 29.50 29.01 29.03 28.09 27.58 27.70 26.93 26.62 27.23 27.17 26.31 24.92
44.36 43.95 43.15 44.76 44.89 45.91 44.73 43.39 41.00 38.62 33.96 31.55 27.94 25.23 28.63 28.35 26.06 27.53 27.48 29.14 33.11 32.36 33.64 34.60 32.50 30.96 29.01 28.60 26.27 23.38 25.07 20.93 24.01 28.15 30.33 31.68 30.91 30.69 30.26 30.24 30.27 30.23 29.43 29.06 28.99 28.67 27.92 26.58 25.22 24.51 24.61 24.13 23.54 22.80
43.92 41.03 44.42 43.67 43.58 43.31 42.81 39.34 36.54 32.53 31.44 29.75 26.26 26.68 25.34 25.90 24.28 25.74 26.64 27.94 32.20 33.05 30.42 29.01 20.99 21.43 27.37 21.92 18.98 21.25 19.72 22.70 23.27 28.46 30.68 30.72 29.95 29.56 29.91 29.84 29.64 29.74 29.08 28.49 27.48 26.21 25.02 25.10 25.02 23.97 21.87 22.11 22.28 21.87
39.69 43.85 44.36 44.14 43.21 42.10 39.35 36.54 32.04 30.71 26.09 26.61 24.04 24.54 24.52 24.25 22.99 24.46 26.61 28.65 31.30 30.05 27.90 23.98 25.97 18.82 16.77 16.62 16.35 19.40 21.80 23.18 28.02 25.46 25.42 29.60 30.53 30.34 29.87 28.24 28.24 27.77 26.94 26.59 26.51 26.20 25.81 24.64 22.92 22.11 22.02 22.24 22.09 21.77
42.49 44.01 43.68 43.54 42.43 37.10 31.99 32.32 32.38 24.22 24.71 26.54 25.54 25.40 24.02 22.31 24.45 25.52 26.39 27.87 28.63 28.60 26.57 22.41 16.54 14.78 16.06 18.16 17.52 19.55 20.66 22.20 23.88 23.48 23.77 24.68 25.61 25.44 25.09 25.02 24.82 24.39 24.25 23.78 23.34 22.49 22.54 23.20 23.20 23.17 22.85 22.25 19.99 20.05
43.48 43.17 43.87 43.15 41.22 34.06 31.37 31.16 34.72 29.15 25.97 26.83 26.26 22.00 21.61 20.79 21.59 22.48 22.83 24.23 23.82 22.50 18.08 15.69 14.90 16.24 17.18 18.59 20.79 20.61 21.07 25.38 25.20 20.89 19.86 21.45 23.01 22.59 22.27 22.80 22.18 22.42 21.46 20.87 20.62 20.71 19.76 18.69 19.44 19.46 19.56 19.86 18.73 17.38
36.92 36.06 37.54 36.40 32.51 31.76 30.14 30.62 31.17 31.01 30.10 27.73 29.95 25.13 21.47 21.59 18.85 17.55 17.89 22.01 18.36 17.29 14.99 17.41 18.02 19.15 21.17 20.88 21.88 21.13 19.93 19.55 18.01 19.88 18.76 16.84 19.42 20.11 19.45 19.60 19.51 18.85 17.45 16.92 16.09 15.40 15.32 14.82 15.88 16.66 16.19 15.78 16.81 16.74
31.63 34.79 29.20 31.01 28.58 27.71 26.65 27.22 28.84 28.66 27.43 25.69 23.49 24.04 20.60 15.45 13.12 16.64 19.21 14.57 14.81 16.96 19.17 18.02 18.37 18.90 17.95 17.90 18.49 19.93 20.14 18.72 17.99 16.89 16.26 16.09 14.05 13.95 14.29 15.95 15.26 13.46 13.57 13.74 13.15 11.96 11.58 11.57 12.38 12.17 11.75 11.49 12.61 12.35
32.28 30.01 25.93 25.07 21.23 20.46 18.89 26.23 20.57 22.56 17.83 17.03 19.53 18.29 15.46 12.94 16.72 20.31 12.45 15.00 15.07 17.90 19.55 19.94 19.30 19.15 17.67 17.81 17.53 17.62 17.96 16.35 14.46 13.89 13.12 12.13 11.81 11.47 10.71 10.40 11.59 10.98 9.72 9.71 10.80 9.23 7.47 7.31 7.59 7.14 7.80 7.44 7.57 7.24
29.58 20.39 13.78 12.74 16.62 10.19 13.83 14.38 21.21 18.81 16.11 15.11 16.80 14.56 16.74 12.83 14.74 11.14 9.66 12.09 14.74 16.12 15.67 16.82 17.30 15.62 15.13 14.04 12.56 12.65 14.64 15.44 13.56 12.86 13.29 11.14 9.08 8.45 9.07 8.57 8.62 8.27 8.11 8.18 6.97 5.51 4.47 3.20 2.08 3.90 2.26 3.29 2.65 3.33
19.78 16.85 14.17 9.37 11.10 11.04 7.62 7.93 9.53 13.75 9.14 12.47 12.34 14.28 9.77 12.28 6.26 5.18 7.62 10.97 12.08 10.79 12.42 14.12 13.74 12.67 10.52 10.66 10.95 11.63 12.73 12.42 9.91 7.54 8.76 11.09 9.62 9.20 8.03 7.52 6.68 6.53 7.57 6.15 3.30 3.40 3.07 1.84 1.65 1.93 1.95 0.50 1.12 0.77
14.61 17.39 17.45 7.22 10.27 12.30 8.40 8.02 10.23 11.64 8.95 9.95 11.10 11.55 5.83 3.95 1.23 3.97 9.89 9.34 10.49 10.20 9.72 9.94 10.80 9.92 9.52 10.54 9.30 9.48 10.26 12.33 10.53 6.70 6.75 7.76 7.09 5.01 4.05 3.00 3.37 3.76 4.67 0.95 2.95 2.48 2.49 1.59 0.86 0.15 1.02 1.00 -4.16 -2.82
15.28 12.11 19.18 19.86 17.08 14.61 10.94 7.93 10.49 8.83 7.90 12.90 6.31 -0.24 -0.03 -4.49 -2.28 8.09 13.10 12.35 10.72 8.91 9.83 8.48 9.69 9.68 9.56 9.26 9.50 8.84 8.96 8.69 7.68 6.66 7.13 6.62 5.99 5.18 3.61 1.37 0.54 2.35 2.36 -0.02 -0.54 -0.68 -0.50 -0.89 -1.28 -1.03 -1.79 -0.63 -0.47 -3.20
19.19 13.62 7.68 7.12 9.91 10.90 7.68 2.23 3.14 5.62 7.59 13.29 4.60 -4.67 -7.72 -5.26 1.19 7.49 11.08 11.69 10.67 9.79 8.05 7.32 6.80 6.42 5.90 5.87 5.74 5.75 6.40 5.55 5.18 4.86 4.75 4.30 2.13 1.20 -0.59 -2.08 -2.33 -0.11 -2.93 -3.23 -0.96 -1.57 0.48 -0.58 -0.36 -1.24 -2.12 -2.82 -3.93 -2.78
9.81 4.97 9.98 2.78 5.07 7.27 9.93 4.56 4.74 8.97 11.11 3.12 -3.84 -3.19 0.67 5.63 5.92 5.92 9.64 11.30 11.16 8.08 3.41 2.48 2.35 0.01 1.01 1.91 -0.51 -1.53 -0.35 1.53 1.37 -3.26 -4.24 -3.37 -3.31 0.29 -0.86 -2.84 -3.73 -3.73 -6.27 -3.83 -1.96 2.67 4.36 1.38 -0.11 -3.12 -5.40 -6.40 -6.38 -7.17
6.95 6.60 8.55 0.77 1.82 2.80 -1.01 0.88 -1.76 -3.27 5.25 3.62 7.19 6.95 4.95 4.23 7.08 9.11 7.38 6.84 5.05 -0.12 -3.19 -3.91 -5.56 -1.34 -3.26 -1.82 -2.31 -0.88 -3.77 -6.09 -4.02 -2.55 -4.09 -5.00 -3.07 -1.42 -4.64 -5.36 -4.64 -5.18 -8.99 -7.36 -6.64 -5.11 -4.29 -6.35 -3.94 -5.65 -8.26 -7.95 -8.11 -7.73
4.54 3.86 6.55 7.93 7.70 1.16 -0.01 -5.36 -9.00 -4.40 -4.36 -4.15 -6.34 -5.25 -3.27 0.73 4.35 5.64 4.24 1.33 -1.64 -4.33 -0.45 -1.40 -3.01 -8.08 -3.12 -4.46 -4.11 -5.01 -3.77 -3.78 -12.25 -8.08 -6.81 -6.09 -5.73 -6.27 -5.18 -6.27 -7.36 -9.35 -9.71 -9.89 -10.26 -9.89 -9.53 -8.26 -9.53 -10.44 -9.57 -10.66 -12.29 -12.45
0.92 -0.65 5.67 4.25 6.30 6.83 4.44 0.22 -6.45 -3.38 -6.63 -5.37 -5.54 -12.25 -6.84 -6.86 -8.81 -1.64 0.01 -4.35 -2.90 -1.41 -6.45 -7.90 -6.45 -3.01 -6.81 -8.26 -11.71 -10.44 -12.26 -7.73 -6.81 -7.54 -8.81 -6.45 -3.73 -4.09 -6.09 -7.18 -10.80 -10.98 -9.35 -9.35 -10.80 -11.53 -12.43 -10.98 -10.44 -10.80 -11.71 -12.49 -13.65 -14.07
-4.71 -5.37 -2.74 2.04 4.81 3.96 5.10 4.12 2.10 -0.91 -3.75 -4.46 -4.82 -8.44 -12.08 -6.53 -6.96 -2.18 -1.45 -9.21 -3.51 -3.70 -5.91 -6.45 -6.81 -8.99 -10.44 -11.35 -7.90 -7.72 -8.38 -7.58 -11.16 -8.99 -4.09 -2.82 -8.63 -4.82 -6.09 -8.63 -10.44 -10.65 -9.75 -9.17 -9.89 -12.07 -10.47 -11.53 -10.69 -11.82 -12.25 -14.50 -14.91 -14.79
MSLP
983.63 983.18 982.86 983.01 983.51 984.17 985.10 986.57 988.10 989.61 991.01 992.70 994.04 995.84 997.64 999.42 1001.27 1002.55 1004.50 1004.74 1005.31 1006.06 1005.65 1005.39 1004.78 1004.40 1005.05 1005.48 1005.95 1006.85 1008.18 1008.16 1008.98 1009.41 1009.78 1009.31 1009.04 1008.29 1009.00 1008.57 1008.11 1008.45 1009.15 1009.61 1009.47 1008.70 1007.33 1006.30 1007.07 1006.76 1005.63 1006.08 1006.25 1006.95
984.43 984.16 984.14 984.23 984.66 985.39 986.29 987.36 988.53 989.79 991.33 992.76 994.66 996.28 997.80 999.73 1001.41 1002.81 1004.45 1005.18 1005.77 1006.54 1006.47 1005.63 1005.05 1004.75 1005.05 1004.01 1005.01 1005.64 1005.46 1006.27 1007.07 1007.88 1008.49 1008.65 1008.81 1008.75 1008.24 1008.54 1007.83 1007.68 1006.84 1007.08 1007.31 1006.29 1005.51 1005.20 1004.88 1005.05 1005.44 1005.96 1006.50 1006.94
986.02 985.18 985.45 985.72 986.07 986.56 987.36 988.20 989.23 990.58 991.95 993.67 995.51 997.03 998.59 1000.17 1001.63 1002.90 1004.36 1005.64 1006.31 1007.02 1006.38 1005.64 1004.59 1003.88 1004.13 1004.20 1003.61 1004.17 1004.86 1004.96 1005.45 1005.59 1006.82 1007.43 1007.67 1007.61 1007.90 1007.64 1007.29 1006.81 1006.39 1006.17 1006.54 1005.33 1005.19 1005.14 1005.17 1005.36 1005.63 1006.01 1006.52 1007.05
988.11 987.24 986.87 986.93 986.90 987.42 988.29 989.10 990.32 991.66 993.34 994.98 996.44 997.90 999.40 1000.85 1002.36 1003.87 1004.87 1005.74 1006.64 1007.17 1006.93 1005.00 1003.78 1003.80 1003.04 1003.32 1003.48 1003.56 1003.72 1004.16 1004.64 1005.54 1006.12 1006.44 1006.81 1006.45 1006.76 1006.34 1006.54 1005.65 1005.77 1005.68 1005.65 1005.21 1005.43 1005.25 1005.20 1005.28 1006.08 1006.67 1007.10 1007.96
989.85 989.56 989.27 989.12 989.18 989.43 990.09 991.08 992.22 993.70 995.02 996.24 997.58 998.96 1000.31 1001.72 1003.22 1004.30 1005.29 1006.05 1006.25 1007.09 1006.45 1004.64 1003.39 1002.43 1002.41 1002.66 1003.05 1003.40 1003.71 1004.20 1004.80 1005.79 1006.01 1006.00 1005.78 1006.07 1006.84 1006.41 1005.71 1004.97 1004.64 1004.93 1004.03 1003.42 1003.75 1003.99 1004.33 1005.57 1006.40 1006.99 1007.53 1008.20
991.26 991.15 991.22 991.31 991.54 991.90 992.51 993.32 994.29 995.35 996.48 997.57 998.81 1000.08 1001.28 1002.57 1003.48 1004.46 1006.09 1006.14 1006.10 1006.68 1007.16 1005.41 1003.72 1002.65 1002.02 1002.01 1002.57 1002.98 1003.23 1003.89 1004.41 1004.84 1005.31 1005.20 1004.90 1004.87 1005.65 1005.08 1003.73 1003.34 1003.32 1003.47 1003.49 1004.09 1004.67 1005.07 1005.43 1005.91 1006.79 1007.56 1008.31 1008.88
992.51 992.52 992.66 992.95 993.33 993.77 994.33 995.08 995.89 996.77 997.76 998.84 999.85 1000.83 1002.03 1003.27 1004.19 1004.58 1004.81 1004.42 1005.16 1007.24 1006.36 1005.63 1004.24 1002.58 1002.00 1001.87 1002.16 1002.40 1003.25 1003.72 1004.11 1004.75 1005.06 1005.14 1005.33 1005.01 1004.56 1003.96 1003.29 1003.17 1003.31 1003.67 1003.96 1005.00 1005.85 1006.03 1006.39 1006.97 1007.39 1008.32 1009.09 1010.03
993.51 993.65 993.93 994.26 994.66 995.17 995.76 996.41 997.10 997.86 998.70 999.60 1000.54 1001.55 1002.63 1003.66 1004.38 1004.59 1003.77 1003.47 1004.84 1006.56 1005.71 1004.96 1003.99 1002.84 1002.00 1002.25 1002.49 1002.58 1003.01 1003.73 1004.17 1004.34 1005.05 1005.13 1005.64 1005.56 1004.48 1003.29 1003.17 1003.81 1004.06 1004.37 1005.04 1005.18 1005.68 1006.12 1007.02 1007.97 1008.66 1009.22 1010.09 1011.11
994.35 994.46 994.80 995.27 995.74 996.27 996.84 997.42 998.02 998.74 999.46 1000.38 1001.36 1002.55 1003.84 1004.24 1004.31 1003.82 1004.01 1004.51 1005.03 1005.25 1005.21 1005.27 1004.56 1003.23 1002.37 1002.66 1002.85 1003.07 1002.94 1004.08 1004.58 1004.54 1004.71 1004.91 1005.38 1004.62 1003.48 1003.11 1003.33 1004.17 1004.55 1005.02 1005.55 1006.75 1006.56 1007.39 1007.85 1008.76 1009.20 1009.89 1010.43 1011.73
995.20 995.29 995.55 995.92 996.50 997.20 997.77 998.36 999.01 999.74 1000.49 1001.25 1002.27 1002.77 1003.32 1003.19 1003.16 1003.61 1004.79 1005.04 1004.93 1004.54 1004.28 1004.23 1003.87 1003.38 1003.04 1003.17 1003.30 1003.51 1003.55 1004.19 1004.48 1004.47 1004.49 1004.62 1004.44 1004.21 1004.30 1004.04 1003.90 1004.37 1005.13 1005.53 1006.41 1007.75 1008.32 1008.15 1009.00 1009.73 1010.28 1010.96 1011.54 1012.34
995.97 996.05 996.21 996.62 997.00 997.65 998.51 999.37 1000.02 1000.64 1001.25 1001.62 1001.99 1002.29 1002.60 1002.92 1003.36 1004.29 1004.68 1004.96 1005.00 1004.53 1003.90 1003.49 1003.44 1002.96 1002.96 1003.06 1003.33 1003.83 1004.34 1004.62 1004.46 1004.31 1004.40 1004.67 1004.89 1005.12 1005.20 1005.06 1005.24 1005.62 1005.53 1005.18 1006.60 1006.95 1008.07 1009.48 1009.56 1010.04 1011.15 1012.25 1013.05 1013.74
996.70 996.97 997.39 997.76 998.01 998.51 999.25 999.86 1000.48 1000.72 1001.03 1000.96 1000.83 1001.49 1002.66 1003.13 1003.56 1004.39 1004.55 1004.72 1004.70 1003.77 1003.24 1003.10 1003.08 1003.12 1003.17 1002.96 1003.59 1004.78 1004.75 1004.89 1004.50 1004.33 1004.48 1005.20 1006.09 1006.37 1006.29 1006.26 1006.28 1006.37 1006.73 1006.43 1007.84 1007.23 1008.41 1010.18 1010.91 1010.97 1012.22 1013.23 1014.07 1014.92
997.90 998.04 998.47 998.46 999.24 999.73 1000.39 1000.85 1000.62 1001.06 1001.13 1000.99 1001.09 1002.17 1002.77 1003.80 1003.89 1003.77 1003.98 1003.82 1003.72 1003.54 1003.39 1003.06 1003.24 1003.29 1003.38 1003.27 1004.04 1004.52 1004.84 1004.93 1004.88 1004.91 1005.58 1006.84 1007.11 1007.25 1007.25 1007.30 1007.25 1006.93 1008.96 1008.27 1007.81 1009.30 1010.30 1011.47 1012.15 1012.55 1013.35 1014.40 1015.06 1016.09
998.73 998.87 999.15 999.83 1000.13 1000.72 1000.85 1000.78 1001.08 1001.24 1001.65 1001.93 1002.48 1003.51 1003.91 1004.19 1004.32 1004.39 1004.03 1003.78 1003.85 1003.66 1003.50 1003.35 1003.53 1003.44 1003.79 1004.21 1004.61 1004.94 1005.46 1005.52 1006.21 1006.65 1007.52 1008.17 1008.25 1008.36 1008.31 1008.32 1008.05 1009.05 1009.75 1009.58 1010.41 1010.99 1011.91 1012.61 1013.43 1014.23 1014.90 1015.65 1016.49 1017.68
999.40 1000.03 1000.34 1000.58 1000.76 1001.05 1001.10 1001.49 1002.15 1002.62 1003.04 1003.47 1003.97 1004.97 1005.34 1005.41 1005.15 1004.81 1004.53 1004.36 1004.09 1003.73 1003.52 1003.47 1003.72 1003.78 1004.83 1005.11 1005.58 1006.09 1006.42 1007.87 1009.09 1009.60 1009.62 1009.27 1009.16 1009.38 1009.52 1009.62 1009.95 1010.72 1011.24 1011.57 1011.99 1012.64 1013.33 1013.90 1014.70 1015.69 1016.50 1017.14 1017.79 1018.66
1000.20 1000.63 1001.00 1001.15 1001.24 1001.48 1001.85 1002.15 1002.75 1003.22 1004.03 1005.02 1006.59 1007.01 1006.96 1006.75 1006.76 1006.08 1005.55 1005.01 1004.49 1004.06 1003.78 1004.06 1005.08 1006.07 1007.25 1007.81 1008.41 1009.72 1010.21 1011.75 1012.27 1011.79 1011.26 1010.77 1010.76 1011.04 1011.03 1011.25 1011.47 1011.81 1012.23 1012.86 1013.53 1014.11 1014.87 1015.70 1016.48 1017.26 1018.02 1018.80 1019.51 1020.11
999.99 1000.44 1001.26 1001.55 1001.84 1001.99 1002.29 1003.14 1004.21 1005.12 1006.16 1007.49 1008.81 1009.16 1008.54 1008.21 1008.09 1007.72 1007.12 1006.40 1005.55 1005.14 1006.05 1006.61 1008.06 1009.60 1009.76 1010.77 1012.50 1013.41 1014.43 1014.82 1014.38 1013.47 1012.92 1012.75 1012.75 1012.71 1012.77 1012.93 1013.14 1013.49 1014.13 1014.71 1015.32 1016.01 1016.77 1017.44 1017.88 1018.48 1019.38 1020.43 1021.01 1021.69
1000.13 1000.73 1001.16 1001.70 1002.03 1002.79 1003.50 1004.12 1005.15 1006.80 1008.73 1009.86 1009.98 1010.34 1010.25 1010.32 1010.01 1009.42 1008.94 1007.84 1006.73 1007.25 1008.36 1010.06 1011.31 1012.82 1014.29 1015.37 1016.50 1017.19 1017.02 1016.53 1015.88 1015.73 1015.18 1014.58 1014.37 1014.28 1014.45 1014.72 1015.13 1015.57 1016.13 1016.71 1017.17 1017.87 1018.46 1018.93 1019.42 1020.31 1021.01 1021.67 1022.19 1022.82
1000.37 1001.21 1001.87 1002.29 1002.47 1002.97 1004.03 1005.33 1006.16 1009.07 1010.91 1011.29 1011.61 1011.47 1011.48 1011.77 1011.50 1010.96 1010.04 1009.31 1009.01 1009.09 1010.26 1012.91 1015.47 1017.49 1018.45 1019.02 1018.97 1018.48 1018.18 1017.82 1017.53 1017.48 1017.21 1017.03 1016.84 1016.79 1016.91 1017.12 1017.50 1017.87 1018.21 1018.70 1019.17 1019.79 1020.38 1020.78 1021.34 1021.87 1022.40 1022.84 1023.38 1023.94
1001.30 1002.02 1002.39 1002.86 1003.29 1004.25 1005.65 1007.20 1007.57 1009.64 1011.44 1012.45 1012.69 1012.90 1013.04 1013.73 1013.69 1012.82 1011.99 1011.45 1011.06 1011.77 1014.70 1017.72 1019.91 1020.84 1020.73 1020.59 1020.32 1020.00 1019.53 1018.70 1018.67 1018.80 1019.09 1019.24 1019.35 1019.20 1019.31 1019.47 1019.86 1020.22 1020.52 1021.03 1021.48 1021.86 1022.35 1022.92 1023.43 1023.73 1024.00 1024.26 1024.56 1024.98
1002.43 1003.43 1003.40 1003.51 1004.45 1005.37 1007.67 1008.86 1009.76 1010.92 1011.97 1012.57 1013.03 1013.48 1014.43 1014.71 1014.64 1014.97 1014.93 1015.03 1014.62 1017.55 1019.93 1021.58 1021.97 1022.18 1022.13 1021.97 1021.66 1021.33 1020.89 1020.52 1020.71 1020.76 1021.22 1021.52 1021.76 1021.57 1021.64 1021.84 1022.02 1022.27 1022.65 1023.23 1023.68 1024.29 1024.58 1025.08 1025.47 1025.57 1025.65 1025.80 1026.00 1026.18
1003.65 1003.84 1004.29 1004.46 1005.80 1007.49 1009.36 1010.60 1011.08 1011.76 1012.35 1013.56 1014.04 1014.79 1016.08 1017.09 1017.62 1018.12 1018.59 1018.50 1020.69 1022.43 1022.87 1023.28 1023.32 1023.22 1023.17 1023.09 1022.94 1022.70 1022.76 1022.59 1022.77 1022.99 1023.29 1023.37 1023.60 1023.83 1024.06 1024.38 1024.28 1024.65 1025.10 1025.64 1025.95 1026.37 1026.79 1027.12 1027.14 1027.21 1027.22 1027.32 1027.26 1027.29
1003.57 1004.06 1005.60 1006.73 1008.41 1010.32 1012.55 1011.99 1012.66 1013.67 1014.36 1015.41 1015.73 1016.85 1018.21 1019.06 1019.74 1019.80 1021.77 1023.61 1024.70 1025.14 1024.80 1024.59 1024.72 1024.74 1024.82 1025.01 1024.75 1024.64 1024.72 1024.62 1024.80 1025.22 1025.50 1025.79 1026.21 1026.45 1026.54 1026.74 1026.81 1026.93 1027.31 1027.84 1028.04 1028.24 1028.55 1028.70 1028.65 1028.59 1028.59 1028.58 1028.43 1028.33
1004.51 1006.96 1009.09 1010.78 1011.79 1014.11 1014.33 1014.88 1014.92 1015.70 1016.33 1017.05 1017.93 1019.29 1020.37 1021.06 1021.61 1023.14 1025.19 1026.13 1026.73 1026.55 1026.15 1026.03 1025.94 1025.99 1026.16 1026.21 1026.39 1026.72 1026.73 1026.63 1026.74 1027.03 1027.33 1027.47 1027.76 1028.27 1028.42 1028.61 1028.78 1028.99 1029.25 1029.44 1029.50 1029.64 1029.76 1029.82 1029.77 1029.72 1029.64 1029.48 1029.35 1029.20
1007.13 1011.29 1012.14 1013.95 1014.54 1015.74 1016.98 1017.57 1017.89 1017.81 1019.06 1019.24 1019.79 1021.01 1022.21 1022.30 1024.01 1025.74 1026.85 1027.62 1027.94 1028.02 1027.88 1027.70 1027.60 1027.63 1027.74 1028.08 1028.31 1028.41 1028.42 1028.25 1028.31 1028.55 1029.16 1029.03 1029.21 1029.41 1029.73 1030.09 1030.36 1030.58 1030.56 1030.39 1030.49 1030.48 1030.50 1030.44 1030.35 1030.26 1030.18 1030.14 1029.99 1029.84
1011.85 1014.42 1014.89 1016.03 1017.03 1017.44 1018.63 1019.77 1019.98 1020.30 1020.37 1021.07 1022.15 1023.05 1023.62 1024.87 1026.44 1027.62 1028.08 1028.56 1028.92 1029.22 1029.27 1029.16 1029.00 1029.06 1029.25 1029.46 1029.54 1029.63 1029.76 1029.62 1029.63 1029.70 1030.58 1030.58 1030.58 1030.66 1030.95 1031.10 1031.23 1031.42 1031.61 1031.63 1031.39 1031.24 1031.11 1031.04 1030.99 1030.88 1030.68 1030.50 1030.39 1030.40
1015.25 1016.65 1017.12 1017.78 1018.18 1018.91 1020.42 1021.17 1021.46 1021.85 1022.50 1023.34 1024.35 1025.19 1026.02 1027.76 1028.63 1028.85 1028.98 1029.43 1029.84 1030.32 1030.38 1030.34 1030.14 1030.26 1030.46 1030.71 1030.91 1031.08 1030.97 1030.84 1030.87 1031.33 1031.77 1031.89 1032.01 1032.19 1032.28 1032.43 1032.56 1032.76 1032.48 1032.28 1032.06 1031.84 1031.67 1031.45 1031.36 1031.29 1031.20 1030.91 1030.70 1030.66
1017.20 1018.33 1019.35 1020.06 1020.23 1020.75 1022.25 1023.39 1023.89 1024.40 1024.80 1025.01 1025.93 1027.83 1028.64 1029.59 1030.18 1030.17 1030.01 1030.44 1030.71 1031.01 1031.22 1031.39 1031.54 1031.61 1031.83 1032.03 1032.16 1032.10 1032.12 1032.23 1032.21 1032.30 1032.50 1032.71 1032.92 1033.07 1033.22 1033.54 1033.50 1033.25 1033.08 1032.85 1032.40 1031.92 1031.70 1031.65 1031.57 1031.57 1031.54 1031.35 1031.02 1030.78
1019.40 1020.40 1020.66 1021.95 1022.15 1023.12 1024.51 1025.37 1026.12 1026.42 1026.48 1026.63 1027.86 1029.30 1030.05 1030.69 1031.15 1030.98 1030.97 1031.05 1031.36 1031.68 1032.19 1032.57 1033.00 1033.07 1033.06 1033.09 1033.18 1033.24 1033.16 1032.84 1032.84 1033.18 1033.30 1033.54 1033.65 1033.56 1033.65 1033.66 1033.57 1033.54 1033.64 1033.08 1032.62 1032.02 1031.54 1031.58 1031.73 1032.18 1032.22 1031.98 1031.65 1031.28
1021.45 1021.42 1022.37 1023.41 1024.63 1026.05 1026.80 1027.27 1027.62 1028.11 1027.75 1028.18 1028.77 1030.07 1031.12 1031.82 1031.91 1031.75 1031.74 1031.97 1032.39 1032.93 1033.26 1033.38 1033.48 1033.53 1034.04 1033.97 1034.23 1034.16 1034.22 1034.17 1034.16 1034.34 1034.42 1034.48 1034.41 1034.23 1034.11 1034.01 1033.92 1033.83 1034.07 1033.61 1033.18 1032.81 1032.58 1032.65 1032.12 1032.29 1032.64 1032.24 1031.99 1031.66
1022.28 1022.54 1023.64 1024.84 1026.27 1027.29 1027.70 1028.00 1028.25 1028.67 1029.30 1030.12 1030.65 1031.53 1032.45 1032.72 1032.75 1032.86 1033.02 1033.37 1033.57 1033.66 1033.83 1034.24 1034.39 1034.58 1034.70 1034.91 1035.03 1034.99 1034.96 1034.83 1034.76 1034.80 1034.81 1034.71 1034.53 1034.37 1034.28 1034.32 1034.30 1034.33 1034.18 1033.79 1033.56 1033.40 1033.21 1032.96 1032.89 1032.83 1032.82 1032.70 1032.47 1032.26
1023.73 1024.58 1024.93 1026.43 1027.45 1027.87 1028.07 1028.69 1029.61 1030.17 1031.26 1031.79 1032.63 1032.84 1033.43 1033.65 1033.81 1033.76 1033.97 1034.23 1034.42 1034.64 1034.81 1034.96 1035.19 1035.18 1035.23 1035.29 1035.35 1035.44 1035.37 1035.32 1035.13 1035.16 1035.12 1034.86 1034.52 1034.42 1034.44 1034.31 1034.41 1034.33 1033.97 1033.80 1033.67 1033.61 1033.55 1033.35 1033.20 1033.12 1033.05 1032.90 1032.73 1032.52
1025.40 1025.44 1025.82 1026.80 1027.84 1028.42 1028.52 1028.93 1030.00 1031.20 1031.69 1032.48 1033.03 1033.52 1034.04 1034.03 1034.21 1034.31 1034.53 1034.92 1034.98 1035.13 1035.29 1035.36 1035.29 1035.27 1035.52 1035.59 1035.65 1035.65 1035.52 1035.40 1035.50 1035.28 1034.82 1034.58 1034.73 1034.38 1034.26 1034.26 1034.27 1034.15 1033.93 1033.85 1033.79 1033.75 1033.56 1033.45 1033.30 1033.16 1033.03 1032.93 1032.76 1032.54
Wind_Speed
8 9 11 13 16 18 26 27 29 30 29 36 37 37 40 41 36 9 4 3 4 1 2 6 4 9 10 17 9 6 8 5 2 5 4 4 3 5 3 4 7 8 8 4 4 2 8 8 6 11 7 2 6 11
12 12 16 17 18 23 24 27 27 30 35 37 35 33 39 38 34 11 5 3 4 4 4 4 4 8 8 14 13 14 7 8 8 6 4 3 3 1 6 8 0 4 7 8 10 8 2 11 4 7 4 4 6 12
28 12 13 14 13 16 21 22 27 32 34 36 35 33 32 30 27 9 4 4 5 2 8 4 7 3 4 9 7 6 2 6 5 4 6 4 5 5 6 7 2 4 3 3 3 5 7 7 3 3 5 5 6 9
24 28 26 22 21 25 26 29 32 33 31 30 31 30 30 27 26 12 4 3 4 2 4 5 1 7 8 9 7 4 2 4 5 2 3 4 5 4 5 3 4 3 8 7 3 5 2 9 9 5 5 5 10 10
20 22 24 26 25 27 29 29 28 27 27 27 26 27 25 27 26 8 3 5 8 3 3 5 9 5 9 11 12 10 9 3 3 2 2 3 3 4 1 2 4 6 8 7 8 11 7 5 11 9 10 9 12 18
18 20 21 22 24 26 27 26 26 26 27 27 27 27 27 25 17 5 2 2 5 5 5 3 4 4 3 8 11 13 10 5 3 3 3 2 2 2 5 5 6 9 7 2 1 2 3 5 6 6 9 12 11 13
17 18 19 20 22 23 24 25 25 26 27 27 26 26 25 26 8 4 5 4 17 4 3 3 4 4 3 2 2 4 5 3 3 3 2 2 1 1 2 6 4 6 6 4 6 8 2 5 5 6 12 14 16 15
13 15 18 20 20 21 22 22 22 22 22 22 22 23 26 21 7 4 1 13 15 5 1 3 4 3 1 1 2 2 4 2 0 3 1 3 1 0 5 5 4 2 6 6 2 4 2 12 13 13 14 15 17 16
12 13 15 18 20 21 21 21 22 23 25 23 25 25 13 3 3 4 11 16 2 2 4 2 2 3 3 1 1 0 1 3 1 2 3 4 2 6 4 5 6 7 3 8 11 7 12 11 14 14 15 15 18 17
12 14 13 17 21 21 21 22 22 23 23 25 14 3 3 3 12 15 4 4 2 3 2 2 1 3 2 0 1 1 3 3 3 3 3 3 3 1 3 5 6 10 13 14 9 5 7 12 12 12 11 11 14 15
10 10 13 15 16 26 24 23 22 23 20 3 3 3 2 18 3 3 2 3 2 2 4 4 5 2 1 2 2 2 2 2 4 4 5 3 2 2 7 4 5 5 9 7 5 9 7 8 12 15 14 13 12 14
12 15 19 18 19 25 27 25 22 6 3 4 3 5 4 2 3 3 3 2 4 5 3 4 3 3 1 1 4 1 3 2 4 2 3 2 3 4 3 5 8 8 7 10 8 16 16 13 12 15 14 13 13 14
14 15 17 17 19 22 23 17 8 8 3 1 3 4 2 1 2 6 6 3 3 2 1 1 2 2 1 3 3 3 3 2 3 1 3 3 3 3 3 4 9 14 5 11 19 16 17 15 13 15 16 13 15 15
12 12 13 14 13 13 11 22 19 6 3 3 3 5 2 1 2 1 1 1 0 1 1 1 2 2 2 3 0 4 1 1 2 2 4 3 3 4 6 7 9 13 10 14 14 16 16 16 15 14 13 12 13 12
11 13 14 11 11 12 17 17 9 2 1 4 4 4 3 3 3 3 2 1 2 2 1 2 3 3 4 4 4 1 3 6 6 5 4 7 6 5 8 9 10 11 10 12 12 14 14 15 15 14 11 11 11 11
14 11 5 16 15 12 14 9 6 4 4 4 8 6 6 2 4 3 6 4 5 5 2 4 4 4 6 3 6 7 4 5 6 6 7 5 7 6 8 9 10 11 12 12 12 13 14 13 13 12 12 11 10 10
7 2 19 20 16 16 14 5 4 6 6 5 4 8 5 2 5 6 6 7 5 2 4 3 8 6 3 5 6 6 5 5 9 7 6 7 7 8 9 11 12 13 13 13 13 14 14 12 12 13 14 11 11 11
3 10 24 20 13 6 3 3 4 6 8 5 4 8 8 7 7 7 7 9 4 4 4 7 5 10 7 6 4 4 4 8 4 7 9 9 12 12 11 14 14 14 14 14 14 13 12 12 13 10 13 12 11 10
9 13 18 16 6 3 4 5 5 7 8 3 5 4 4 5 11 9 9 9 8 7 6 6 8 6 4 4 4 6 6 5 5 7 10 15 14 14 15 15 16 16 15 15 14 11 11 14 10 8 6 6 6 5
20 14 12 11 7 3 6 5 4 6 5 2 2 8 7 7 7 10 13 12 10 7 10 9 6 4 4 5 5 5 6 5 4 7 10 10 10 14 15 11 10 12 12 13 13 13 10 10 9 9 8 7 5 5
10 5 7 4 3 6 6 3 5 4 4 3 1 2 4 6 14 13 11 9 12 8 7 6 5 6 8 7 7 6 9 10 10 7 7 8 9 10 10 10 12 10 11 9 10 10 11 9 7 7 7 7 6 5
2 3 3 4 5 6 6 6 4 1 4 2 3 4 5 4 4 7 5 10 8 7 5 5 7 7 9 13 11 13 11 14 13 11 13 10 10 10 10 9 9 10 10 9 8 8 8 7 7 7 6 6 6 5
5 6 5 7 9 8 2 3 6 6 5 3 3 5 5 4 4 3 7 6 5 7 7 7 10 12 11 11 13 15 14 14 10 10 9 9 9 9 9 10 9 8 8 9 7 7 6 7 7 7 6 6 6 6
9 8 8 6 7 2 4 7 4 4 5 5 4 4 4 3 2 6 5 4 5 7 8 10 7 6 8 11 10 9 9 8 9 9 8 8 8 9 9 9 9 8 8 6 6 6 6 5 6 6 5 5 5 5
11 10 8 7 4 8 7 5 5 5 4 4 5 4 3 3 5 5 3 2 4 5 6 7 7 7 6 6 7 8 10 7 8 9 8 6 6 6 7 8 8 8 6 6 6 6 5 5 5 6 6 6 7 8
11 7 7 3 4 6 2 5 5 4 3 5 5 2 4 5 6 4 2 1 2 3 4 4 3 5 7 6 5 5 6 5 6 9 7 7 7 5 6 6 5 6 7 4 5 5 6 5 5 7 6 7 5 6
8 6 4 4 3 4 5 3 2 6 5 4 2 4 5 6 3 2 2 4 2 2 4 4 4 5 6 6 6 6 6 7 7 7 6 6 7 6 5 5 5 4 5 5 4 4 5 5 5 5 5 5 6 5
5 5 5 5 6 4 5 4 4 4 2 2 4 6 5 4 3 2 3 4 4 5 5 6 6 5 5 5 4 3 4 3 4 4 4 5 5 5 5 3 3 4 4 4 4 3 4 3 5 6 6 7 7 6
5 3 5 6 5 7 7 4 2 3 4 3 5 3 3 3 2 2 2 3 3 4 4 4 4 3 4 4 5 5 5 4 4 5 5 3 4 4 6 4 3 4 4 5 7 7 6 4 5 4 5 5 5 6
2 1 6 5 6 5 3 1 1 2 4 3 4 4 4 3 3 3 3 3 3 3 2 2 1 2 3 3 2 4 4 4 4 3 2 2 2 5 4 4 4 4 4 4 5 6 6 4 4 4 5 6 6 6
1 4 6 5 5 1 2 2 1 3 4 5 4 5 3 2 1 3 3 2 3 3 3 3 3 2 3 3 3 2 3 2 3 2 1 2 2 3 3 3 3 3 3 4 4 4 4 3 3 4 6 7 7 6
4 4 5 6 3 1 1 2 2 4 3 4 2 2 3 4 1 2 2 2 2 2 1 2 2 1 2 1 0 1 2 3 3 3 3 2 3 3 4 3 2 2 3 3 3 3 3 3 4 4 5 6 7 7
4 3 4 5 4 2 2 3 4 3 3 3 1 2 2 4 4 4 0 1 3 3 2 3 3 2 3 3 2 0 2 3 4 5 5 4 3 4 4 2 2 2 4 3 3 3 4 4 4 4 5 5 6 7
Wind_Direction
22 51 92 130 148 154 151 156 160 164 170 166 157 166 169 168 169 132 102 100 126 126 288 315 324 161 164 202 183 149 136 211 117 167 175 198 192 179 165 230 181 163 155 175 111 139 262 157 97 173 215 197 187 172
33 76 95 109 116 136 154 153 156 161 156 150 156 159 162 165 171 131 116 79 88 90 310 317 256 267 259 192 164 175 175 161 182 165 188 104 164 153 143 238 4 219 193 177 189 204 207 198 195 191 149 188 194 165
32 78 109 101 117 135 145 150 153 152 148 149 158 162 165 162 164 112 95 115 65 107 297 209 238 270 222 232 218 150 210 166 180 187 164 184 191 132 158 223 215 237 181 173 119 210 217 217 229 222 189 204 171 171
46 49 73 91 105 126 122 130 135 131 134 148 154 156 160 161 153 127 108 119 101 51 274 283 204 229 212 202 199 207 144 84 102 127 176 160 164 182 201 204 216 190 143 160 262 265 309 250 227 187 165 143 120 113
66 68 68 76 83 89 98 106 115 130 137 136 139 141 145 150 154 113 83 152 183 172 298 299 319 252 210 182 186 200 205 139 139 153 136 223 128 130 142 112 235 200 171 169 211 206 182 218 185 157 157 165 146 130
73 80 87 87 87 92 100 109 114 120 125 125 127 134 136 139 127 94 95 245 186 143 295 292 304 274 208 177 184 194 201 193 156 159 196 237 279 162 164 192 243 205 203 188 188 109 67 68 94 133 139 147 140 133
86 89 95 101 108 112 113 117 120 122 127 131 135 136 145 148 143 149 203 189 152 151 226 245 263 217 213 169 150 148 156 172 163 190 221 150 227 232 138 190 242 219 178 153 133 119 90 193 181 139 127 121 115 115
83 86 102 111 115 118 120 123 127 129 133 135 140 142 146 150 68 243 287 138 136 217 247 290 266 324 282 153 146 8 129 120 86 151 86 157 100 2 247 203 169 146 115 109 146 45 355 116 118 122 125 128 120 121
89 97 108 119 120 121 124 125 124 123 125 133 128 132 134 174 170 217 149 144 207 196 176 175 273 279 14 93 59 196 81 120 63 158 186 140 162 222 241 192 169 169 209 142 93 97 125 134 133 138 136 134 126 134
85 93 95 121 137 134 132 134 130 130 129 129 130 137 129 194 129 112 133 164 207 253 240 211 199 261 106 279 154 329 40 134 158 209 126 177 237 326 355 326 145 140 137 130 112 116 124 127 134 135 131 128 129 131
85 92 99 110 113 145 142 130 131 131 134 157 138 165 189 158 108 50 131 154 170 240 205 216 175 221 232 138 121 14 111 342 182 191 172 184 258 0 342 52 86 134 144 97 124 125 139 152 143 128 114 114 118 121
87 71 72 94 102 128 143 141 142 141 158 207 145 93 97 109 85 155 188 163 218 218 199 168 174 195 252 244 97 154 138 121 237 143 131 164 22 339 345 86 71 58 62 105 131 109 109 123 128 113 115 112 103 101
76 75 81 98 108 121 128 133 69 63 257 85 68 80 154 19 178 186 186 209 188 190 224 168 147 150 119 57 76 110 159 174 356 30 77 41 354 13 52 87 96 77 99 96 91 94 100 104 99 107 105 102 103 100
104 97 91 84 92 106 107 70 42 1 40 53 69 79 16 358 25 8 304 314 178 182 269 146 112 125 89 70 271 100 81 108 57 27 50 11 32 34 60 74 80 88 77 84 97 99 101 99 93 91 93 101 104 103
112 94 88 80 95 114 83 71 69 132 73 68 43 60 50 354 343 346 297 261 298 234 187 115 71 60 43 69 29 83 50 58 22 6 344 341 18 45 57 65 83 95 95 89 91 95 96 96 94 89 83 89 98 103
117 99 90 94 77 118 103 61 25 30 51 60 44 353 349 19 359 350 352 8 356 348 11 36 70 66 44 32 49 18 50 40 353 326 330 352 32 46 64 70 74 79 83 86 85 89 89 88 92 90 82 79 79 88
115 65 126 99 88 73 62 69 29 47 46 45 42 13 343 14 13 353 345 342 310 12 47 48 50 28 343 56 49 20 31 343 319 343 3 28 51 62 71 74 76 80 80 79 81 80 85 87 89 87 88 83 85 82
62 136 125 120 102 127 105 71 84 63 61 20 36 12 33 30 5 16 353 355 18 55 32 48 42 34 33 32 35 7 324 318 13 14 16 32 49 57 60 66 65 69 73 74 77 80 80 81 81 82 90 91 89 87
130 117 90 80 68 77 72 35 55 79 41 23 356 4 16 28 22 16 18 15 36 49 84 58 52 39 36 10 328 329 334 339 26 31 41 39 43 52 58 60 62 63 64 65 66 66 65 62 68 77 81 82 83 73
94 80 81 70 46 57 62 38 58 71 54 94 101 48 52 34 10 28 33 25 33 54 46 51 36 15 3 353 342 347 338 354 70 61 48 39 40 50 51 58 60 65 66 63 59 59 64 60 48 49 52 59 73 62
77 14 49 58 53 64 73 42 61 88 124 82 24 47 74 34 38 32 32 9 44 40 61 42 43 38 28 27 19 34 43 47 51 52 64 59 41 53 55 54 60 60 62 59 62 57 54 53 46 44 48 46 44 39
98 75 81 8 74 60 68 20 88 89 72 86 47 45 44 30 18 21 26 33 52 31 35 32 30 35 40 36 35 37 49 58 57 56 52 53 49 46 44 44 54 58 54 51 55 57 54 42 35 39 41 29 27 31
82 48 45 31 68 55 322 11 61 16 64 1 27 44 28 34 22 25 62 36 44 7 14 39 48 48 53 46 48 47 46 59 61 56 56 58 57 53 53 46 40 56 61 49 49 55 52 31 38 37 31 33 26 28
39 53 50 49 50 74 16 23 28 50 39 27 55 63 48 43 38 58 64 40 8 4 25 31 35 55 52 45 42 36 33 52 67 57 47 66 70 61 60 61 54 53 54 59 56 54 48 42 30 39 31 31 29 23
64 359 68 18 6 65 48 28 10 51 60 16 72 47 11 38 69 68 76 49 16 8 13 26 46 51 61 61 46 42 32 46 66 72 34 52 81 88 78 72 63 49 27 46 42 35 33 28 25 23 25 22 11 0
71 359 45 30 359 69 20 62 43 47 48 52 46 51 40 69 67 69 67 58 27 11 4 10 38 68 60 48 56 43 30 38 75 73 51 41 49 63 62 53 42 39 22 26 19 19 12 8 5 2 358 358 358 351
61 31 37 41 84 90 69 53 64 68 57 45 18 38 56 65 78 71 96 24 77 23 36 32 49 74 81 74 64 52 51 52 68 87 88 67 60 54 55 52 38 10 354 15 22 18 1 354 349 347 335 330 326 334
71 56 75 322 55 32 96 59 56 60 46 47 73 45 103 150 133 21 38 98 99 89 71 58 57 64 70 63 49 55 68 74 97 100 106 90 69 56 43 42 38 16 9 9 8 11 10 3 348 343 338 332 326 329
42 341 71 30 49 47 38 54 79 47 354 83 103 107 103 69 4 5 35 83 83 87 77 83 55 50 70 69 56 42 36 40 65 50 41 14 355 360 7 4 357 3 6 349 347 354 5 23 14 11 356 341 334 332
5 21 88 57 61 49 299 77 85 287 25 75 95 94 68 43 9 11 57 68 88 98 111 105 74 84 78 57 41 29 34 36 46 80 61 357 310 317 336 343 345 352 352 351 349 337 350 10 345 6 2 359 2 353
4 62 73 61 78 16 180 176 51 85 49 48 34 83 119 139 32 29 55 63 110 114 96 70 60 49 87 68 67 40 359 4 10 354 288 289 311 321 327 332 329 331 343 347 345 342 337 344 353 345 346 348 346 346
28 62 117 103 116 183 36 51 92 80 36 63 27 58 32 57 57 293 335 84 68 76 44 122 129 229 196 166 214 262 250 301 313 319 317 305 294 317 319 322 331 331 335 342 346 344 338 331 323 331 328 333 333 333
55 52 56 91 85 169 250 82 40 72 45 71 29 149 167 150 176 227 60 56 141 157 179 203 211 196 177 176 172 214 311 295 285 287 291 305 304 309 320 328 329 330 327 328 327 321 322 316 313 321 321 320 319 323